Terminal Aerodrome Forecast
Issued by NWS Upton, NY

Home | Current Version | Previous Version | Text Only | Print | Product List | Glossary On
Versions: 1 2 3 4 5 6 7 8 9 10 11 12 13 14 15 16 17 18 19 20 21 22 23 24 25 26 27 28 29
000
FTUS41 KOKX 271436 AAA
TAFISP
TAF AMD
KISP 271436Z 2715/2812 32010KT P6SM FEW040 SCT080
     FM271700 31011G17KT P6SM FEW040 BKN080
     FM272000 31013G19KT P6SM BKN070
     FM280000 32010G17KT P6SM BKN060=

USA.gov is the U.S. government's official web portal to all federal, state and local government web resources and services.